This is the latest recevied weather packets stored in our database for station/object DL9GRB-13. If no packets are shown the sender has not sent any weather packets the latest 1 day(s).
| Time | Temp. | Humidity | Pressure | Rain* | Wind** | Luminosity | Snow |
|---|---|---|---|---|---|---|---|
| 1777972388 | 10° C | 91% | 1010.5 hPa | 0.51 mm | 1.79 m/s, 355° | 135 W/m² | - |
| 1777972208 | 10° C | 92% | 1010.5 hPa | 0.51 mm | 1.79 m/s, 1° | 115 W/m² | - |
| 1777972028 | 10° C | 92% | 1010.5 hPa | 0.51 mm | 3.13 m/s, 65° | 97 W/m² | - |
| 1777971848 | 10° C | 92% | 1010.4 hPa | 0 mm | 2.24 m/s, 69° | 114 W/m² | - |
| 1777971668 | 9.44° C | 92% | 1010.4 hPa | 0.51 mm | 2.68 m/s, 262° | 122 W/m² | - |
| 1777971488 | 9.44° C | 92% | 1010.5 hPa | 0.51 mm | 8.05 m/s, 68° | 129 W/m² | - |
| 1777971308 | 9.44° C | 92% | 1010.4 hPa | 0.51 mm | 3.13 m/s, 74° | 129 W/m² | - |
| 1777971128 | 9.44° C | 92% | 1010.4 hPa | 0 mm | 5.81 m/s, 60° | 97 W/m² | - |
| 1777970948 | 9.44° C | 92% | 1010.5 hPa | 0 mm | 7.15 m/s, 304° | 104 W/m² | - |
| 1777970768 | 9.44° C | 92% | 1010.4 hPa | 0 mm | 4.02 m/s, 94° | 115 W/m² | - |
| 1777970588 | 9.44° C | 92% | 1010.3 hPa | 0 mm | 4.47 m/s, 99° | 98 W/m² | - |
| 1777970408 | 9.44° C | 92% | 1010.4 hPa | 0 mm | 2.68 m/s, 113° | 83 W/m² | - |
| 1777970228 | 9.44° C | 92% | 1010.5 hPa | 0 mm | 8.94 m/s, 31° | 103 W/m² | - |
| 1777970048 | 9.44° C | 93% | 1010.5 hPa | 0 mm | 5.81 m/s, 147° | 97 W/m² | - |
| 1777969868 | 9.44° C | 93% | 1010.4 hPa | 0 mm | 5.36 m/s, 73° | 91 W/m² | - |
| 1777969688 | 9.44° C | 93% | 1010.4 hPa | 0 mm | 9.39 m/s, 45° | 109 W/m² | - |
| 1777969508 | 9.44° C | 93% | 1010.5 hPa | 0 mm | 4.02 m/s, 55° | 121 W/m² | - |
| 1777969328 | 9.44° C | 93% | 1010.4 hPa | 0.51 mm | 1.79 m/s, 13° | 95 W/m² | - |
| 1777969148 | 9.44° C | 93% | 1010.5 hPa | 0.51 mm | 2.24 m/s, 360° | 109 W/m² | - |
| 1777968968 | 9.44° C | 93% | 1010.4 hPa | 0.51 mm | 5.36 m/s, 360° | 127 W/m² | - |
| 1777968788 | 9.44° C | 94% | 1010.2 hPa | 0 mm | 7.6 m/s, 351° | 140 W/m² | - |
| 1777968608 | 9.44° C | 94% | 1010.2 hPa | 0 mm | 2.68 m/s, 11° | 117 W/m² | - |
| 1777968428 | 9.44° C | 94% | 1010.3 hPa | 0.51 mm | 6.26 m/s, 102° | 106 W/m² | - |
| 1777968248 | 9.44° C | 94% | 1010.3 hPa | 0.51 mm | 4.92 m/s, 326° | 99 W/m² | - |
| 1777968068 | 9.44° C | 94% | 1010.2 hPa | 0.51 mm | 4.02 m/s, 322° | 97 W/m² | - |
* Rain latest hour (hover to see other rain measurements)
** Current wind speed in m/s (hover to see current wind gust speed)